Regional Weather Roundup
Issued by NWS

Home | Current Version | Previous Version | Graphics & Text | Print | Product List | Glossary On
Versions: 1 2 3 4 5 6 7 8 9 10 11 12 13 14 15 16 17 18 19 20 21 22 23 24 25 26 27 28 29 30 31 32 33 34 35 36 37 38 39 40 41 42 43 44 45 46 47 48 49 50
000
ASUS43 KBIS 011759
RWRND

NORTH DAKOTA REGIONAL WEATHER ROUNDUP
NATIONAL WEATHER SERVICE BISMARCK ND
100 PM CDT MON SEP 01 2014

NOTE: "FAIR" INDICATES FEW OR NO CLOUDS BELOW 12,000 FEET WITH NO
SIGNIFICANT WEATHER AND/OR OBSTRUCTIONS TO VISIBILITY.


NDZ001>003-009>011-017-011900-
NORTHWEST NORTH DAKOTA

CITY           SKY/WX    TMP DP  RH WIND       PRES   REMARKS
WILLISTON      MOSUNNY   70  44  39 NW12      29.84F
6HR MIN TEMP:  48; 6HR MAX TEMP:  71;

MINOT          SUNNY     69  48  47 W12       29.79S
$$

NDZ018>021-031>035-040>046-011900-
SOUTHWEST NORTH DAKOTA

CITY           SKY/WX    TMP DP  RH WIND       PRES   REMARKS
BISMARCK       SUNNY     70  52  52 NW14G22   29.82S
6HR MIN TEMP:  50; 6HR MAX TEMP:  71;

GARRISON         N/A     69  50  50 NW14      29.82S
6HR MIN TEMP:  48; 6HR MAX TEMP:  69;

HETTINGER ARPT MOSUNNY   68  47  46 NW13      29.89S
$$

NDZ004>008-012>016-024-026-027-054-011900-
NORTHEAST NORTH DAKOTA

CITY           SKY/WX    TMP DP  RH WIND       PRES   REMARKS
GRAND FORKS    MOSUNNY   74  55  51 W6        29.70F
DEVILS LAKE    MOSUNNY   66  54  63 NW14      29.73F
$$

NDZ022-023-025-028>030-036>039-047>053-011900-
SOUTHEAST NORTH DAKOTA

CITY           SKY/WX    TMP DP  RH WIND       PRES   REMARKS
FARGO          MOSUNNY   73  54  51 W9        29.74S
6HR MIN TEMP:  52; 6HR MAX TEMP:  75;

JAMESTOWN      SUNNY     70  57  63 W10       29.77S
$$



USA.gov is the U.S. government's official web portal to all federal, state and local government web resources and services.